星链-5300 (STARLINK-5300 )

导读

STARLINK-5300是美国太空探索技术公司(SpaceX)星链(Starlink)项目的卫星,于2023年2月17日发射,属于星链星座的组网卫星。星链项目旨在构建全球卫星互联网,STARLINK-5300入轨后,将助力提升星链系统全球网络覆盖能力与服务容量,为全球用户提供宽带互联网接入服务。

Basic Information
目录编号:
55676
目录名称:
STARLINK-5300
国际标识:
2023-021BA
轨道中心:
EARTH
卫星名称:
星链-5300
卫星全名:
星链-5300 (STARLINK-5300 )
卫星状态:
在轨 (已飞行1305 天)
发射日期:
2023-02-17 UTC
国别 :
美国 (US)
星等 :
--
This satellite is enrolled in the Space Conjunction Data Service (SCDS) and the current flight risk assessment level is: No High Risk
Orbit Information
数据来源 国际轨道数据 AOE轨道数据
星历时间 2026-09-13T20:44:50+0800
1天前
查看轨道信息
2026-09-10T08:00:00+0800
4天前
查看轨道信息
半长轴 6950.172km 6950.148km
偏心率 0.0002918 0.0003127
轨道倾角 70.002° 70.000°
近地点辐角 267.954° 283.415°
升交点赤经 30.877° 39.779°
平近点角 92.129° 115.208°
近地点 570.006km 569.837km
远地点 574.064km 574.185km
周期 96.107分钟 96.106分钟
每日圈数 14.983368 14.983448
Detailed Information
固有亮度:
5
最大亮度:
2.5
卫星平台:
Starlink v1.5
覆盖范围:
全球
运营商:
太空探索技术公司
运营商所在国:
美国
制造商(研发单位):
太空探索技术公司
制造商所在国:
美国
使用方式:
暂无
Satellite Introduction
星链(Starlink)计划是由太空探索技术公司(SpaceX)提出的一个巨型低轨卫星互联网星座项目,计划在2019年至2024年间在太空搭建由约1.2万颗卫星组成的“星链”网络,其中1584颗将部署在地球上空550千米处的近地轨道,并从2020年开始工作。该卫星仍在工作。
2D Orbit Map
3D Orbit Map
Orbit Altitude Analysis Chart
Orbit Inclination Analysis Chart
Orbit Comprehensive Analysis Chart
View Comprehensive Chart
Conjunction Data List
Event ID Objects TCA Miss Dist (km) Collision Risk Probability Collision Risk Index (CRI) Action
CDM_260914-130504-029005-567624
2026-09-14T
13:05:43+0000
1.638 km
极远距离
5.016833E-6 低风险 0.49
CDM_260914-100804-916305-567624
2026-09-14T
10:08:28+0000
2.761 km
极远距离
1.384353E-6 低风险 0.38
CDM_260915-191505-567605-910521
2026-09-15T
19:15:57+0000
2.825 km
极远距离
6.696464E-7 极低风险 0.32
Miss Distance Evolution Trend with All Objects Subscribe to Flight Safety Assessment
Collision Probability Evolution Trend with All Objects Subscribe to Flight Safety Assessment